Location: Iesi
(43.5167°N, 13.2333°E)
Time: 19:21:21
(UTC+00:00)

Cosmos 1763 Rocket - Pass Details

Date: 08 August 2020
Orbit: 732 x 780 km, 74.0° (Epoch: 24 September)

Event Time Altitude Azimuth Distance (km) Brightness Sun altitude
Rises 20:42:30 0° 344° (NNW) 3,272 7.9 -21.4°
Reaches altitude 10° 20:45:00 10° 351° (N) 2,342 6.8 -21.7°
Maximum altitude 20:50:06 45° 64° (ENE) 1,065 4.1 -22.3°
Enters shadow 20:51:05 40° 93° (E) 1,136 4.0 -22.4°
